Notices

What's New in latest Release from April 7th, 2021:

- Updated Glossary, including Speed of Maximum Gust, and Total Hourly Precipitation

- Updated national and regional climate services offices contacts and prices information

- Addition of station inventory lists for 1981-2010, 1971-2000, and 1961-1990 Normals.

If you haven't already, please take our survey and provide feedback about our website: https://eccc.sondage-survey.ca/f/LanguageSelection.aspx?s=442ca660-fcf1-47c0-95a9-59707d6fd709

Hourly Data Report for April 06, 2017

MIRAMICHI RCS
NEW BRUNSWICK

47°00'34.000" N
65°27'54.000" W
33.00 m
8100989
71744
ACQ

Download Data

Hourly Data (April 2017)
Hourly Data Report for April 6, 2017
TIME
LST
Temp Definition
°C
Dew Point Definition
°C
Rel Hum Definition
%
Precip. Amount Definition
mm

Wind Dir Definition
10's deg

Wind Spd Definition
km/h
Visibility Definition
km
Stn Press Definition
kPa
Hmdx Definition


Wind Chill Definition


Weather Definition


00:00 -0.8 -1.5 95 0.0 1 3   101.69   -2 LegendNANA
01:00 -0.7 -1.6 93 0.0 3 4   101.63   -2 LegendNANA
02:00 -0.7 -1.6 93 0.0 2 4   101.61   -2 LegendNANA
03:00 -0.7 -1.6 93 0.0 3 4   101.63   -2 LegendNANA
04:00 -0.6 -1.6 93 0.0 3 2   101.66   -1 LegendNANA
05:00 -0.5 -1.6 92 0.0 4 2   101.69   -1 LegendNANA
06:00 -0.6 -1.3 95 0.2 3 4   101.71   -2 LegendNANA
07:00 -0.3 -1.0 95 0.0 6 4   101.78   -2 LegendNANA
08:00 0.5 -0.4 94 0.0 6 5   101.77     LegendNANA
09:00 1.4 -0.3 88 0.2 8 7   101.72     LegendNANA
10:00 1.9 0.3 89 0.0 7 10   101.63     LegendNANA
11:00 2.4 0.6 88 0.0 7 11   101.57     LegendNANA
12:00 3.2 1.0 86 0.0 7 8   101.54     LegendNANA
13:00 3.2 1.2 87 0.0 4 11   101.47     LegendNANA
14:00 4.5 0.5 75 0.0 4 13   101.38     LegendNANA
15:00 4.2 0.5 77 0.0 8 20   101.25     LegendNANA
16:00 2.8 1.3 90 0.0 9 20   101.23     LegendNANA
17:00 2.6 1.6 94 0.0 10 22   101.22     LegendNANA
18:00 1.2 0.7 97 0.2 5 14   101.15     LegendNANA
19:00 0.8 0.2 96 0.0 5 13   101.07     LegendNANA
20:00 0.8 0.0 94 0.0 6 14   100.95     LegendNANA
21:00 1.9 0.9 93 0.0 6 17   100.83     LegendNANA
22:00 2.4 1.4 93 0.8 10 19   100.74     LegendNANA
23:00 2.3 1.3 93 0.0 9 19   100.59     LegendNANA

Notes on Data Quality.

Legend

  • E = Estimated
  • M = Missing
  • NA = Not Available*
  • [empty] = Indicates an unobserved value
Date modified: